Location: Bothwell
(42.3833°S, 147.0000°E)
Time: 20:21:59
(UTC+11:00)

CUBESAT XI-V - Pass Details

Date: 04 October 2022
Orbit: 666 x 689 km, 98.1° (Epoch: 25 November)

Event Time Altitude Azimuth Distance (km) Brightness Sun altitude
Rises 04:40:40 0° 178° (S) 3,093 ? -22.0°
Reaches altitude 10° 04:43:08 10° 188° (S) 2,172 ? -21.6°
Enters shadow 04:46:55 30° 240° (WSW) 1,253 ? -21.0°
